Home   Weather   Eureka   Past weeks

Flag for Canada Past Weather in Eureka, Nunavut, Canada — Yesterday and Last 2 Weeks

Now
-22 °F

Snow flurries. Passing clouds.


Feels Like: -33 °F
Forecast: -33 / -23 °F
Wind: 3 mph from East

Location: Eureka

Current Time: Dec 8, 2016 at 8:15:02 pm

Latest Report: Dec 8, 2016 at 7:00 pm


Visibility: 15 mi

Pressure: 29.81 "Hg

Humidity: 68%

Dew Point: -29 °F

Location of EurekaLocation

Past Weather in Eureka — Graph

°F

Eureka Temperature Yesterday

Maximum temperature yesterday: -8 °F (at 5:00 am)
Minimum temperature yesterday: -26 °F (at 4:00 pm)
Average temperature yesterday: -18 °F

High & Low Weather Summary for the Past Weeks

 TemperatureHumidityPressure
High16 °F (Dec 1, 9:00 pm)92% (Dec 1, 1:00 am)30.47 "Hg (Dec 1, 1:00 am)
Low-27 °F (Dec 8, 1:00 am)59% (Dec 2, 6:00 pm)29.52 "Hg (Dec 2, 3:00 am)
Average-8 °F76%30.14 "Hg
* Reported Nov 23 7:00 pm — Dec 8 7:00 pm, Eureka, Weather by CustomWeather, © 2016

Note: Actual official high and low records may vary slightly from our data, if they occured in-between our weather recording intervals... More about our weather records

Advertising

Eureka Weather History for the Previous 24 Hours

Scroll right to see more
 ConditionsComfort  
Time TempWeatherWind HumidityBarometerVisibility
7:00 pm
Thu, Dec 8
-22 °FSnow flurries. Passing clouds.3 mph68%29.81 "Hg15 mi
6:00 pm-22 °FSnow flurries. Passing clouds.8 mph75%29.83 "Hg15 mi
5:00 pm-20 °FSnow flurries. Passing clouds.9 mph68%29.85 "Hg15 mi
4:00 pm-17 °FSnow flurries. Passing clouds.6 mph69%29.87 "Hg15 mi
3:00 pm-18 °FSnow flurries. Passing clouds.No wind75%29.90 "Hg15 mi
2:00 pm-20 °FSnow flurries. Passing clouds.3 mph68%29.93 "Hg10 mi
1:00 pm-17 °FSnow flurries. Passing clouds.2 mph76%29.94 "Hg4 mi
12:00 pm-24 °FLight snow. Scattered clouds.8 mph68%29.96 "Hg4 mi
11:00 am-6 °FLight snow. Ice fog.21 mph77%29.98 "Hg3 mi
10:00 am-8 °FLight snow. Ice fog.24 mph77%30.01 "Hg1 mi
9:00 am-8 °FLight snow. Ice fog.23 mph77%30.05 "Hg1 mi
8:00 am-13 °FSnow flurries. Ice fog.8 mph76%30.08 "Hg1 mi
7:00 am-24 °FSnow flurries. Sunny.6 mph75%30.12 "Hg3 mi
6:00 am-22 °FSnow flurries. Sunny.5 mph75%30.14 "Hg3 mi
5:00 am-26 °FSnow flurries. Clear.No wind67%30.16 "Hg3 mi
4:00 am-26 °FSnow flurries. Clear.6 mph67%30.20 "Hg7 mi
3:00 am-22 °FSnow flurries. Clear.6 mph68%30.22 "Hg15 mi
2:00 am-27 °FSnow flurries. Clear.3 mph74%30.25 "Hg15 mi
1:00 am-27 °FSnow flurries. Clear.2 mph74%30.27 "Hg15 mi
12:00 am-26 °FSnow flurries. Sunny.No wind75%30.29 "Hg15 mi
9:00 pm
Wed, Dec 7
-24 °FSnow flurries. Clear.No wind75%30.32 "Hg15 mi
8:00 pm-26 °FSnow flurries. Clear.3 mph75%30.33 "Hg15 mi
Weather by CustomWeather, © 2016

See weather overviewHow to use our weather pages